Retour au catalogue

STARLINK-36632

ActifCommunicationsSSO
NORAD 67581·PAYLOAD·🇺🇸 United States

Lancé Jan 25, 2026 depuis Vandenberg Space Force Base

Loading…

Prochains Passages (prochaines 24 heures)

TLE

FraisSource: CelesTrak SupGP

Époque: Sep 14, 2026, 21:31 UTC

1 67581C 26016W   26257.89701389 -.00022936  00000+0 -71203-3 0  2575
2 67581  97.2854 316.6445 0001398  89.9091 212.0850 15.33449672    13

Suivez STARLINK-36632 en temps réel avec AllMySat

Download on the App Store